This demonstration page uses our WeatherBlox Daily Observations layout. Learn more.

Left ArrowRight Arrow

36.19886, -115.1175

Hourly Observations for November 25, 2021

Temp ( °F °C ) Dew Point ( °F °C ) Humidity (%) Winds ( mph kmh ) Pressure ( in mb ) Visibility ( mi km ) Precip ( " mm )
12:53 am 00:53 Clear 51 10.6 4 -15.6 14 14 N 9 15 30.49 1033 10 16 0.00 0.00
1:53 am 01:53 Clear 50 10 6 -14.4 17 17 NNW 10 17 30.51 1033 10 16 0.00 0.00
2:53 am 02:53 Clear 49 9.4 8 -13.3 19 19 NNW 13 20 30.52 1033 10 16 0.00 0.00
3:53 am 03:53 Clear 48 8.9 8 -13.3 19 19 N 9 15 30.53 1034 10 16 0.00 0.00
4:53 am 04:53 Clear 45 7.2 8 -13.3 22 22 N 7 11 30.55 1034 10 16 0.00 0.00
5:53 am 05:53 Clear 46 7.8 8 -13.3 21 21 NNW 9 15 30.56 1035 10 16 0.00 0.00
6:53 am 06:53 Sunny 45 7.2 7 -13.9 21 21 NNW 15 24 30.57 1035 10 16 0.00 0.00
7:53 am 07:53 Sunny 49 9.4 7 -13.9 18 18 N 15 24 30.58 1036 10 16 0.00 0.00
8:53 am 08:53 Sunny 52 11.1 7 -13.9 16 16 NNW 16 26 30.58 1035 10 16 0.00 0.00
9:53 am 09:53 Sunny 56 13.3 7 -13.9 14 14 N 10 17 30.58 1036 10 16 0.00 0.00
10:53 am 10:53 Sunny 59 15 6 -14.4 12 12 N 12 19 30.56 1035 10 16 0.00 0.00
11:53 am 11:53 Sunny 60 15.6 5 -15 11 11 NW 14 22 30.52 1033 10 16 0.00 0.00
12:53 pm 12:53 Sunny 61 16.1 4 -15.6 10 10 NW 10 17 30.49 1033 10 16 0.00 0.00
1:53 pm 13:53 Sunny 64 17.8 4 -15.6 9 9 NNW 8 13 30.45 1031 10 16 0.00 0.00
2:53 pm 14:53 Sunny 64 17.8 5 -15 9 9 ENE 6 9 30.44 1031 10 16 0.00 0.00
3:53 pm 15:53 Sunny 65 18.3 4 -15.6 9 9 NNW 5 7 30.43 1031 10 16 0.00 0.00
4:53 pm 16:53 Clear 60 15.6 3 -16.1 10 10 Calm 30.44 1031 10 16 0.00 0.00
5:53 pm 17:53 Clear 57 13.9 5 -15 12 12 NW 5 7 30.44 1031 10 16 0.00 0.00
6:53 pm 18:53 Clear 54 12.2 5 -15 14 14 W 7 11 30.44 1031 10 16 0.00 0.00
7:53 pm 19:53 Clear 52 11.1 6 -14.4 15 15 WNW 6 9 30.44 1031 10 16 0.00 0.00
8:53 pm 20:53 Clear 53 11.7 2 -16.7 12 12 N 9 15 30.43 1031 10 16 0.00 0.00
9:53 pm 21:53 Clear 47 8.3 6 -14.4 19 19 VRB 6 9 30.44 1031 10 16 0.00 0.00
10:53 pm 22:53 Clear 46 7.8 5 -15 18 18 W 7 11 30.43 1030 10 16 0.00 0.00
11:53 pm 23:53 Clear 46 7.8 7 -13.9 20 20 NW 6 9 30.40 1030 10 16 0.00 0.00

Powered by AerisWeather